Theta_e
367 367 365 355 337 329 318 321 326 324 329 335 336 334 335 338 333 326 350 353 355 355 359 362 367 368 365 367 367 363 363 362 363 364 364 364 364 365 364 365 365 365 365 365 364 362 362 364 363
368 358 355 348 327 317 318 326 324 330 333 338 337 336 335 334 343 344 346 354 355 354 357 361 367 367 367 368 367 366 364 364 364 365 365 365 365 365 364 365 365 364 365 364 361 360 360 362 363
362 354 344 329 323 317 318 326 328 331 335 334 335 341 339 336 343 346 352 355 354 355 357 364 368 368 367 366 366 365 365 364 365 364 364 365 365 363 362 364 364 364 364 364 361 359 359 362 364
350 351 345 323 320 323 324 327 330 332 336 336 339 334 343 348 347 351 354 355 354 354 357 365 368 366 365 365 365 365 364 363 362 363 364 363 361 362 359 364 363 364 364 364 364 360 359 361 359
347 341 321 320 320 325 329 330 331 330 332 334 338 335 339 349 353 356 354 355 354 356 356 360 366 366 365 364 364 364 363 363 362 361 361 360 362 360 358 360 360 362 360 362 362 362 360 360 362
335 334 319 316 319 325 330 332 331 330 334 336 337 339 341 350 351 353 355 354 356 357 356 358 365 365 365 364 364 364 364 362 362 361 359 358 357 356 356 357 359 359 360 361 361 361 361 360 358
330 325 319 318 319 323 327 334 331 331 331 333 339 336 343 346 351 354 355 352 355 353 355 358 359 364 364 364 364 364 363 362 359 356 357 352 349 351 354 351 354 356 358 358 358 358 358 356 355
334 327 319 319 319 323 330 332 335 333 333 340 341 334 338 347 352 353 353 353 352 350 351 354 357 358 359 362 363 364 363 361 357 354 356 349 349 346 348 352 354 354 356 356 355 355 355 355 354
336 322 318 319 321 325 331 330 338 340 336 338 339 341 347 351 352 349 349 351 352 348 350 351 352 353 355 357 360 362 361 358 354 356 354 349 347 347 350 351 348 351 355 355 355 355 355 356 356
328 321 321 326 327 327 332 334 334 334 335 335 339 346 349 349 348 345 345 347 347 347 347 349 349 350 352 352 360 360 359 357 350 344 352 349 351 347 347 350 349 351 355 355 357 358 359 359 350
327 321 326 327 330 332 332 332 330 328 328 335 337 342 346 347 346 344 344 346 346 348 348 348 355 353 354 356 355 359 366 355 351 344 349 347 349 349 346 344 345 352 354 349 352 354 352 349 350
321 325 325 328 331 330 331 335 330 331 333 339 342 345 345 344 344 343 345 345 347 348 348 349 352 355 358 357 356 354 359 354 350 348 348 346 345 347 349 347 341 345 350 351 350 349 350 353 350
323 323 325 329 330 331 333 333 332 332 337 341 343 344 343 343 344 345 346 347 348 347 348 349 352 356 355 360 356 354 356 357 355 352 352 349 353 351 346 350 358 355 351 350 350 350 352 352 349
324 324 324 328 329 331 330 334 335 334 339 339 340 340 341 341 342 344 345 346 347 348 348 350 351 356 358 359 361 363 358 359 353 347 360 353 352 359 355 351 356 360 360 356 350 349 349 352 348
324 321 323 324 326 327 331 327 330 336 338 337 338 339 340 341 344 344 347 347 349 349 351 350 352 355 357 361 359 365 361 358 351 347 351 352 360 356 355 352 352 361 356 359 360 354 351 350 347
321 321 316 322 324 326 327 319 334 338 336 335 337 338 340 341 343 346 348 350 352 352 355 355 352 353 357 359 359 359 359 356 355 354 352 350 352 357 359 358 359 355 362 358 359 351 347 348 346
319 312 315 318 324 323 324 321 334 339 336 334 336 337 338 341 344 347 349 351 353 355 356 356 357 353 356 361 360 361 361 358 356 355 356 357 355 357 362 360 362 363 360 358 358 354 349 347 344
313 314 315 314 321 321 319 323 332 337 336 335 335 337 338 339 342 347 349 351 353 356 359 361 359 361 362 361 363 359 357 355 360 357 357 361 361 358 358 358 362 361 361 351 357 356 356 351 347
318 315 313 317 319 319 319 321 328 334 334 334 335 335 337 339 343 346 347 349 350 354 357 361 362 365 362 359 360 366 355 357 365 365 364 361 361 360 360 356 355 355 361 350 355 357 354 353 354
317 315 314 317 319 319 318 318 324 329 332 333 335 335 337 338 342 346 348 349 349 352 356 361 363 367 367 363 363 362 360 358 360 362 366 365 361 361 360 358 357 359 355 357 356 356 356 354 357
317 315 314 315 318 319 315 314 319 327 329 331 334 338 337 340 342 342 340 342 345 352 355 360 365 367 369 371 368 369 365 364 366 360 360 364 365 362 360 361 357 363 364 354 356 356 353 349 350
312 317 315 314 313 308 317 307 317 325 326 331 332 335 338 340 343 340 338 338 344 345 352 359 364 368 368 370 369 370 363 361 362 360 360 365 364 363 362 361 360 362 360 358 357 355 356 356 354
315 319 316 314 314 313 313 309 315 323 325 328 333 335 337 342 345 339 339 339 345 349 353 355 362 366 367 368 369 363 364 361 360 361 365 368 365 366 363 363 362 360 359 360 360 359 358 364 357
320 317 316 316 314 307 312 311 310 311 325 330 335 336 337 339 345 344 342 345 348 352 353 354 359 364 366 366 365 366 363 364 361 367 365 364 368 367 366 364 363 363 362 360 360 362 360 360 358
318 314 307 306 306 306 312 310 315 317 326 330 335 336 337 339 345 346 346 348 351 351 350 353 359 363 364 364 364 363 364 365 365 362 356 362 365 356 367 367 364 362 364 364 364 364 363 359 358
315 315 307 300 303 306 315 308 316 325 331 334 337 339 341 342 345 346 348 350 351 352 354 354 360 362 364 363 364 365 364 360 356 354 352 353 354 358 362 366 368 364 365 365 368 362 360 362 357
315 313 316 309 311 306 310 310 323 328 330 335 336 339 341 344 345 347 348 350 348 350 347 351 360 364 362 362 366 362 360 360 357 361 358 355 359 359 363 365 366 366 365 367 367 362 359 364 363
318 319 310 309 302 302 307 309 314 320 326 334 336 338 342 345 346 345 345 346 346 346 349 352 355 359 357 355 358 357 359 358 359 361 361 360 360 363 366 365 364 365 366 367 367 364 364 362 362
314 313 313 313 311 305 303 309 320 324 328 332 336 340 341 342 342 343 344 346 348 348 349 349 351 351 352 351 352 352 352 353 356 355 358 361 362 366 367 368 365 365 364 365 365 363 359 360 361
319 314 313 308 308 307 308 309 326 327 328 332 337 340 341 345 344 345 346 347 349 349 351 350 350 350 349 350 352 349 350 352 352 353 352 354 358 361 365 365 364 363 363 365 362 360 361 358 357
Wind_Speed
14 15 10 6 4 4 7 10 12 11 15 16 12 12 20 19 13 13 11 16 21 17 17 16 15 16 16 15 14 15 15 14 12 13 12 12 11 12 12 13 14 14 15 15 15 14 13 12 15
12 2 7 4 2 9 4 10 13 14 11 11 9 9 17 19 16 18 12 20 20 18 17 18 15 16 15 15 14 14 14 13 12 12 11 11 10 11 11 12 13 13 14 15 14 14 13 12 13
17 6 7 3 9 12 10 9 12 10 11 9 9 15 11 9 11 8 19 15 14 11 15 17 15 15 15 15 14 14 12 12 11 11 9 11 10 10 9 10 11 13 14 13 14 13 13 12 14
7 7 7 10 12 12 10 7 6 11 14 7 14 15 9 7 6 13 18 16 17 15 16 16 15 15 14 14 13 12 11 10 11 10 9 9 10 10 7 9 11 12 12 12 13 13 11 11 12
12 9 11 13 15 11 9 9 12 16 15 12 19 18 12 12 16 20 17 15 15 13 17 16 13 13 13 12 12 11 10 9 9 9 10 10 10 9 7 7 8 10 10 10 10 10 11 10 8
9 2 11 12 13 14 9 7 14 11 15 16 18 16 10 15 17 17 14 15 17 17 18 16 12 12 12 12 12 10 11 10 10 12 14 16 19 14 5 4 6 5 8 8 8 8 8 7 5
3 8 14 17 14 13 10 16 10 8 15 12 14 16 12 16 15 16 14 9 16 17 18 15 15 13 12 12 11 10 11 11 13 14 16 18 15 11 13 1 3 3 5 5 5 5 6 5 3
7 7 19 16 14 15 11 10 11 11 11 7 10 9 17 17 15 20 16 10 6 14 14 13 13 13 13 12 11 12 12 15 18 15 14 14 12 5 12 6 2 1 2 3 3 3 4 4 5
8 8 13 15 17 10 10 14 9 7 10 8 4 19 22 21 17 16 16 16 6 11 14 15 14 12 12 13 11 12 14 17 17 15 12 11 5 6 8 5 3 5 4 4 4 5 5 7 11
4 12 11 12 14 12 14 12 8 7 13 11 17 23 21 18 12 16 14 17 13 12 12 12 14 14 11 7 14 10 12 9 8 7 6 4 4 5 3 10 6 8 8 7 8 8 8 11 10
7 9 11 9 11 12 11 6 13 9 13 14 17 20 19 18 14 14 12 14 13 12 8 10 8 10 8 9 9 6 4 5 5 7 7 6 4 3 3 4 6 6 7 7 10 11 9 12 6
14 6 6 6 5 6 11 11 14 14 15 16 17 19 18 16 15 12 11 13 12 11 10 12 9 6 6 6 6 8 6 6 6 5 8 6 6 9 8 7 7 9 6 8 9 4 11 5 2
8 6 9 6 5 10 5 11 12 14 15 17 18 17 16 15 13 11 11 11 10 11 10 9 10 7 7 5 2 6 6 7 6 9 10 9 6 7 6 7 6 7 7 7 8 8 3 6 8
5 4 11 11 7 7 9 10 10 12 16 17 16 16 14 12 12 11 10 10 10 10 11 10 11 11 10 7 2 3 4 6 4 7 6 10 8 6 4 9 7 6 7 8 7 9 9 6 8
7 13 12 7 7 8 2 8 15 15 14 16 15 14 13 13 14 13 12 11 10 9 10 11 11 13 11 8 8 6 5 5 4 5 5 10 9 10 9 9 6 7 6 9 7 9 7 8 8
13 8 8 11 6 6 14 4 16 16 15 15 15 13 12 13 15 13 10 12 11 8 11 8 10 12 13 11 8 5 6 7 8 8 6 8 10 13 9 7 7 10 7 5 6 5 9 11 8
10 11 7 12 7 2 8 11 15 15 15 15 15 14 13 13 14 11 15 9 12 10 7 8 9 10 12 10 9 9 6 7 8 8 5 10 11 13 10 8 9 8 5 7 6 7 9 9 9
8 4 9 1 13 4 6 12 15 14 14 14 13 15 14 14 14 15 12 13 14 11 13 12 10 9 9 8 8 8 8 8 7 8 9 10 8 10 10 10 7 4 6 7 5 8 5 7 8
7 6 3 6 6 6 5 11 14 15 13 16 16 15 15 17 13 14 12 11 10 11 10 12 11 10 9 9 9 7 10 7 6 7 8 11 10 9 10 9 8 9 7 6 8 7 8 5 7
8 8 5 5 5 10 10 8 10 14 11 12 16 17 16 17 15 12 10 9 8 8 10 11 11 12 9 9 8 8 6 7 6 7 7 11 10 9 9 11 9 8 7 9 9 9 6 6 6
14 10 8 11 9 11 5 14 12 8 5 9 13 19 18 17 16 14 12 11 8 8 9 9 9 10 11 12 7 4 6 5 5 7 7 9 10 10 11 11 9 7 7 9 9 8 7 6 4
6 1 2 5 12 8 9 3 14 14 12 9 13 16 19 17 17 15 7 10 8 6 8 8 8 8 10 11 10 10 8 7 6 7 8 5 8 10 11 11 11 9 6 9 8 9 8 9 7
4 7 5 4 13 11 11 9 9 15 17 10 11 14 14 18 17 17 10 8 4 4 6 5 6 6 6 6 9 8 10 8 8 6 7 7 9 11 11 10 10 12 10 9 9 8 10 6 7
6 8 7 14 14 12 5 9 11 15 15 12 7 7 10 17 20 16 15 11 7 4 3 5 7 4 5 6 7 9 10 7 7 4 7 7 6 6 12 11 12 11 11 12 10 10 11 10 9
12 19 11 10 8 3 9 9 9 14 9 11 11 8 4 3 17 13 13 11 4 3 4 6 5 4 3 5 6 7 7 7 9 7 8 8 5 8 6 10 10 11 11 11 10 11 11 11 11
18 20 9 10 10 6 8 2 6 8 12 11 11 10 10 8 10 9 7 8 8 7 6 6 6 4 4 3 3 3 4 6 5 7 6 7 6 6 7 8 11 12 11 13 10 8 10 11 12
8 15 14 13 9 7 9 10 23 16 13 12 12 13 12 13 12 11 7 9 11 9 8 9 7 5 2 4 2 3 3 5 7 7 6 6 6 8 7 8 10 12 12 12 11 10 12 10 10
13 14 9 10 13 7 5 8 10 14 15 13 14 13 11 13 9 10 9 9 11 11 9 8 6 5 1 3 4 3 1 1 4 6 7 8 10 10 9 10 10 10 11 11 11 10 11 10 8
14 13 12 11 11 2 12 7 11 7 16 13 13 13 12 11 12 11 12 10 9 9 7 7 5 4 1 2 3 2 3 3 3 5 5 7 8 8 8 8 9 9 10 10 9 11 11 12 11
18 16 20 9 5 12 10 4 2 5 2 12 14 12 10 10 13 12 11 9 9 7 7 7 6 5 6 5 5 5 3 2 4 5 7 6 7 5 6 6 7 8 8 8 9 11 12 12 13
Wind_Direction
185 203 228 248 275 91 28 53 43 59 66 48 46 83 73 35 36 96 115 139 133 150 133 158 153 145 141 137 131 132 131 134 132 126 129 120 119 115 115 115 112 115 115 110 110 112 111 113 117
276 236 232 281 206 95 99 36 57 53 62 101 36 57 75 57 83 115 118 131 143 141 145 141 142 139 135 132 131 135 134 138 138 133 129 125 127 121 121 121 120 120 119 116 118 121 122 114 110
254 272 270 347 16 43 53 51 79 70 40 36 110 37 45 99 88 98 126 136 136 128 121 120 131 134 136 136 135 134 137 135 136 133 141 133 128 117 117 121 126 126 122 121 122 123 123 126 107
273 195 239 51 67 64 63 66 94 80 90 53 136 89 78 90 98 123 130 148 127 138 120 126 130 133 137 136 136 128 134 138 142 148 141 125 121 114 117 109 115 114 119 125 127 129 127 118 116
228 272 84 67 72 65 67 56 52 60 44 34 97 93 89 102 127 124 139 143 135 132 126 132 132 133 133 135 134 134 141 124 122 120 105 101 93 94 108 114 121 125 124 119 118 121 124 125 120
263 282 73 70 66 68 52 74 100 96 111 101 105 99 86 136 122 134 140 157 145 160 141 134 136 138 140 140 137 143 123 123 105 88 73 70 51 28 21 112 108 111 119 123 124 129 128 130 126
292 74 80 80 78 68 46 30 60 80 73 79 137 108 119 140 141 141 142 166 167 145 127 142 149 145 145 146 150 138 124 109 100 106 99 96 81 20 334 90 130 134 127 125 132 134 132 131 136
297 100 89 83 75 71 73 76 33 74 83 118 115 138 152 130 172 142 136 140 184 131 133 145 142 158 158 152 139 133 127 118 101 79 97 102 128 138 266 329 56 1 150 147 154 166 167 166 182
241 67 70 66 79 95 85 79 73 102 73 61 105 134 132 140 177 147 140 131 216 139 156 153 154 159 171 146 141 143 129 119 125 96 108 122 170 187 239 283 301 277 260 215 195 204 210 218 220
51 70 64 43 77 77 71 77 118 130 107 95 87 99 128 148 170 147 165 136 199 147 172 149 163 159 173 161 148 159 146 140 141 125 152 152 184 220 255 289 273 275 259 244 227 221 225 240 242
15 91 93 57 41 74 94 81 39 86 101 122 129 133 146 147 176 155 163 151 177 165 180 156 144 161 169 117 155 136 160 162 149 162 176 190 193 214 253 262 283 268 258 260 214 208 232 232 279
107 90 67 54 85 97 75 86 61 63 76 112 128 142 148 160 176 156 162 157 158 176 189 154 165 169 164 138 169 163 153 171 180 194 196 201 220 219 217 234 217 242 241 247 248 198 273 297 262
93 112 112 101 136 91 109 69 90 86 104 117 128 147 155 174 163 156 159 149 167 178 181 174 167 172 223 183 233 172 142 174 213 192 199 222 216 241 220 242 254 235 264 250 266 266 264 229 248
108 261 118 138 119 126 128 132 125 112 122 125 143 145 162 146 151 141 149 161 171 173 174 182 184 174 211 217 123 100 164 210 214 242 202 226 245 245 252 246 240 253 244 263 238 229 252 246 251
198 170 153 134 140 130 178 157 109 138 138 140 142 150 144 149 146 152 146 153 170 172 163 187 191 174 205 199 208 173 181 199 227 233 235 250 253 239 231 231 242 238 227 245 247 241 250 254 225
215 250 147 127 154 156 126 229 132 151 150 151 152 145 157 154 158 157 161 147 153 174 161 181 190 185 185 209 206 193 186 233 231 207 202 230 255 264 247 246 225 237 189 221 243 222 217 222 226
209 202 123 144 169 238 155 149 141 164 162 159 159 155 164 168 160 170 155 181 156 155 166 176 196 199 183 205 215 225 214 220 238 244 207 240 233 250 246 242 241 217 218 210 230 254 235 213 227
190 86 141 211 133 201 182 132 154 179 176 164 172 160 171 174 184 169 182 180 175 168 175 184 193 210 182 209 210 224 189 230 220 245 245 240 226 238 261 241 244 253 229 245 214 245 287 283 251
10 301 253 101 97 236 217 149 176 172 188 170 174 173 180 177 175 169 189 185 196 180 187 186 199 184 203 204 206 238 217 222 220 249 225 246 248 240 238 249 243 230 230 211 246 238 241 249 265
264 253 132 119 185 259 149 231 142 158 193 196 183 173 183 178 168 176 184 193 208 211 192 191 199 188 201 224 229 209 210 244 232 227 237 225 231 230 243 235 250 226 225 225 212 224 215 245 231
233 256 105 135 181 242 242 227 153 134 188 196 208 180 180 173 176 189 192 204 195 200 205 207 198 198 199 220 214 220 269 281 258 229 230 220 221 224 231 241 237 256 204 234 218 227 254 237 241
317 88 144 236 243 168 247 126 197 157 140 184 192 194 181 177 187 201 174 175 183 194 222 199 195 196 203 215 237 217 223 224 235 248 235 240 227 230 223 231 229 240 229 231 230 218 236 224 232
78 235 265 294 283 271 183 259 147 164 143 145 168 188 201 183 187 198 167 168 173 164 188 201 168 197 239 199 236 248 227 251 228 232 246 239 219 228 226 220 227 232 232 234 240 229 225 234 246
313 218 215 234 245 259 152 270 33 330 115 126 137 183 227 198 168 198 197 191 223 260 209 164 144 174 192 215 224 238 267 268 267 266 289 222 232 224 225 221 217 232 228 233 227 227 225 239 242
227 247 217 218 271 10 234 271 86 198 94 117 137 143 160 209 146 191 197 208 174 151 137 123 122 147 183 215 219 234 248 253 262 258 269 307 205 239 226 212 216 218 224 242 225 215 233 221 232
211 253 285 303 280 180 156 345 108 46 109 120 132 135 129 145 124 151 160 167 138 118 107 107 102 119 142 173 206 228 260 255 262 270 314 289 285 204 195 222 232 236 232 220 229 227 228 230 226
216 241 289 311 220 246 179 345 156 147 124 134 134 134 142 126 135 113 109 125 113 122 110 96 100 96 135 164 200 234 239 266 303 315 301 281 281 273 282 272 252 240 242 243 228 230 228 237 237
268 296 209 221 252 243 97 335 147 174 151 136 142 142 133 112 113 111 98 103 109 104 103 96 88 71 19 282 204 216 344 276 292 296 292 295 298 291 285 273 260 252 249 251 242 240 239 239 235
202 244 260 273 271 203 225 91 53 6 142 140 138 139 145 139 126 123 111 113 110 104 109 108 90 84 219 67 9 35 19 351 266 265 248 251 262 270 279 264 263 256 254 252 245 245 244 243 241
251 208 232 219 123 356 305 141 205 342 64 138 134 143 134 135 136 128 115 105 96 84 56 59 28 9 358 359 301 310 303 306 301 301 296 295 315 288 254 274 258 254 257 261 253 248 249 246 247